Location: Schommer Observatory
(40.5200°N, 74.4500°W)
Time: 08:43:40
(UTC-04:00)

ISS - Pass Details

Date: 08 October 2017
Orbit: 401 x 408 km, 51.6° (Epoch: 20 October)

Event Time Altitude Azimuth Distance (km) Brightness Sun altitude
Rises 19:49:43 0° 312° (NW) 2,328 0.9 -16.3°
Reaches altitude 10° 19:52:18 10° 333° (NNW) 1,468 -0.6 -16.8°
Maximum altitude 19:54:36 17° 17° (NNE) 1,107 -1.7 -17.2°
Enters shadow 19:54:52 17° 24° (NNE) 1,113 -1.8 -17.3°
